TimeEST,TemperatureF,Dew PointF,Humidity,Sea Level PressureIn,VisibilityMPH,Wind Direction,Wind SpeedMPH,Gust SpeedMPH,PrecipitationIn,Events,Conditions,WindDirDegrees,DateUTC
12:15 AM,64.4,46.4,52,29.99,10.0,SSW,12.7,18.4,N/A,,Mostly Cloudy,200,2013-11-07 05:15:00
12:35 AM,64.4,46.4,52,29.98,10.0,SSW,12.7,18.4,N/A,,Overcast,200,2013-11-07 05:35:00
12:55 AM,64.4,46.4,52,29.98,10.0,SSW,10.4,-,N/A,,Overcast,210,2013-11-07 05:55:00
1:15 AM,64.4,46.4,52,29.98,10.0,SW,10.4,-,N/A,,Overcast,230,2013-11-07 06:15:00
1:35 AM,60.8,48.2,63,29.97,9.0,WSW,13.8,24.2,N/A,,Overcast,240,2013-11-07 06:35:00
1:55 AM,59.0,50.0,72,29.97,10.0,SW,8.1,17.3,N/A,,Overcast,230,2013-11-07 06:55:00
2:15 AM,60.8,48.2,63,29.95,10.0,SSW,10.4,-,N/A,,Overcast,210,2013-11-07 07:15:00
2:35 AM,60.8,48.2,63,29.95,10.0,SSW,10.4,-,N/A,,Overcast,210,2013-11-07 07:35:00
2:55 AM,60.8,48.2,63,29.96,7.0,SW,9.2,-,N/A,Rain,Light Rain,220,2013-11-07 07:55:00
3:15 AM,59.0,50.0,72,29.96,10.0,SSW,8.1,-,N/A,,Overcast,210,2013-11-07 08:15:00
3:35 AM,57.2,51.8,82,29.95,8.0,SW,12.7,18.4,N/A,,Overcast,220,2013-11-07 08:35:00
3:55 AM,57.2,51.8,82,29.95,5.0,SSW,16.1,19.6,N/A,,Haze,210,2013-11-07 08:55:00
4:15 AM,55.4,53.6,94,29.96,3.0,SW,17.3,21.9,0.01,,Overcast,220,2013-11-07 09:15:00
4:35 AM,53.6,53.6,100,29.96,2.5,SW,10.4,-,0.04,,Overcast,220,2013-11-07 09:35:00
4:55 AM,53.6,53.6,100,29.95,5.0,SSW,10.4,-,0.07,Rain,Light Rain,210,2013-11-07 09:55:00
5:15 AM,53.6,53.6,100,29.97,3.0,SW,8.1,16.1,N/A,,Overcast,230,2013-11-07 10:15:00
5:35 AM,53.6,53.6,100,29.96,2.5,SW,9.2,-,0.04,,Overcast,220,2013-11-07 10:35:00
5:55 AM,53.6,53.6,100,29.97,2.5,WSW,10.4,-,0.10,Rain,Heavy Rain,240,2013-11-07 10:55:00
6:15 AM,53.6,53.6,100,29.94,7.0,Calm,Calm,-,N/A,Rain,Light Rain,0,2013-11-07 11:15:00
6:35 AM,51.8,51.8,100,29.95,10.0,NNW,16.1,28.8,0.01,Rain,Light Rain,340,2013-11-07 11:35:00
6:55 AM,48.2,48.2,100,29.98,5.0,NNW,17.3,31.1,0.07,Rain,Rain,340,2013-11-07 11:55:00
7:15 AM,46.4,46.4,100,29.99,5.0,NNW,11.5,19.6,0.03,Rain,Light Rain,330,2013-11-07 12:15:00
7:35 AM,46.4,46.4,100,30.01,4.0,NW,9.2,18.4,0.08,Rain,Rain,310,2013-11-07 12:35:00
7:55 AM,46.4,46.4,100,30.02,3.0,WNW,11.5,18.4,0.12,Rain,Rain,290,2013-11-07 12:55:00
8:15 AM,46.4,46.4,100,30.03,4.0,West,10.4,-,0.02,Rain,Light Rain,280,2013-11-07 13:15:00
8:35 AM,44.6,44.6,100,30.04,9.0,West,9.2,-,0.03,Rain,Light Rain,270,2013-11-07 13:35:00
8:55 AM,44.6,44.6,100,30.06,5.0,WNW,8.1,-,0.06,Rain,Light Rain,300,2013-11-07 13:55:00
9:15 AM,44.6,44.6,100,30.08,3.0,NNW,8.1,17.3,0.02,Rain,Light Rain,330,2013-11-07 14:15:00
9:35 AM,42.8,42.8,100,30.08,2.0,NNW,10.4,21.9,0.03,,Drizzle,340,2013-11-07 14:35:00
9:55 AM,42.8,42.8,100,30.09,10.0,NW,5.8,-,0.03,,Overcast,320,2013-11-07 14:55:00
10:15 AM,42.8,42.8,100,30.10,10.0,West,5.8,-,N/A,,Overcast,280,2013-11-07 15:15:00
10:35 AM,42.8,42.8,100,30.11,3.0,NW,11.5,19.6,N/A,,Light Drizzle,320,2013-11-07 15:35:00
10:55 AM,42.8,42.8,100,30.11,8.0,NW,5.8,-,N/A,,Mostly Cloudy,320,2013-11-07 15:55:00
11:15 AM,44.6,44.6,100,30.11,10.0,NW,5.8,-,N/A,,Mostly Cloudy,310,2013-11-07 16:15:00
11:35 AM,42.8,42.8,100,30.11,1.2,West,11.5,18.4,N/A,,Light Drizzle,280,2013-11-07 16:35:00
11:55 AM,42.8,42.8,100,30.11,8.0,WNW,9.2,-,N/A,,Mostly Cloudy,290,2013-11-07 16:55:00
12:15 PM,42.8,42.8,100,30.10,2.0,West,8.1,17.3,0.01,Rain,Heavy Rain,270,2013-11-07 17:15:00
12:35 PM,41.0,41.0,100,30.10,4.0,WNW,6.9,20.7,0.01,,Mostly Cloudy,290,2013-11-07 17:35:00
12:55 PM,41.0,39.2,93,30.11,10.0,WNW,9.2,-,0.01,,Mostly Cloudy,290,2013-11-07 17:55:00
1:15 PM,42.8,39.2,87,30.11,10.0,West,6.9,-,N/A,,Mostly Cloudy,280,2013-11-07 18:15:00
1:35 PM,42.8,37.4,81,30.11,10.0,West,9.2,18.4,N/A,,Mostly Cloudy,280,2013-11-07 18:35:00
1:55 PM,41.0,37.4,87,30.10,10.0,West,6.9,-,N/A,Rain,Light Rain,270,2013-11-07 18:55:00
2:15 PM,42.8,35.6,76,30.10,10.0,WSW,9.2,-,N/A,,Overcast,250,2013-11-07 19:15:00
2:35 PM,42.8,35.6,76,30.10,10.0,West,3.5,-,N/A,,Overcast,270,2013-11-07 19:35:00
2:55 PM,42.8,35.6,76,30.10,10.0,West,8.1,-,N/A,,Overcast,270,2013-11-07 19:55:00
3:15 PM,42.8,33.8,70,30.10,10.0,West,10.4,16.1,N/A,,Mostly Cloudy,270,2013-11-07 20:15:00
3:35 PM,42.8,33.8,70,30.10,10.0,West,9.2,-,N/A,,Mostly Cloudy,260,2013-11-07 20:35:00
3:55 PM,42.8,32.0,66,30.10,10.0,WSW,13.8,-,N/A,,Overcast,250,2013-11-07 20:55:00
4:15 PM,42.8,32.0,66,30.10,10.0,West,5.8,-,N/A,,Mostly Cloudy,280,2013-11-07 21:15:00
4:35 PM,42.8,32.0,66,30.11,10.0,West,5.8,-,N/A,,Mostly Cloudy,260,2013-11-07 21:35:00
4:55 PM,42.8,32.0,66,30.11,10.0,West,9.2,-,N/A,,Mostly Cloudy,260,2013-11-07 21:55:00
5:35 PM,41.0,32.0,70,30.14,10.0,WNW,15.0,20.7,N/A,,Mostly Cloudy,290,2013-11-07 22:35:00
5:55 PM,41.0,30.2,65,30.15,10.0,NW,8.1,-,N/A,,Mostly Cloudy,310,2013-11-07 22:55:00
6:15 PM,39.2,30.2,70,30.16,10.0,WNW,4.6,-,N/A,,Mostly Cloudy,290,2013-11-07 23:15:00
6:35 PM,39.2,30.2,70,30.17,10.0,West,9.2,-,N/A,,Mostly Cloudy,280,2013-11-07 23:35:00
6:55 PM,39.2,28.4,65,30.17,10.0,WNW,9.2,-,N/A,,Mostly Cloudy,300,2013-11-07 23:55:00
7:15 PM,39.2,28.4,65,30.18,10.0,WNW,5.8,-,N/A,,Mostly Cloudy,290,2013-11-08 00:15:00
7:35 PM,39.2,28.4,65,30.18,10.0,WNW,3.5,-,N/A,,Mostly Cloudy,290,2013-11-08 00:35:00
7:55 PM,39.2,28.4,65,30.18,10.0,Calm,Calm,-,N/A,,Mostly Cloudy,0,2013-11-08 00:55:00
8:15 PM,39.2,28.4,65,30.17,10.0,Calm,Calm,-,N/A,,Overcast,0,2013-11-08 01:15:00
8:35 PM,39.2,26.6,61,30.17,10.0,WNW,3.5,-,N/A,,Overcast,300,2013-11-08 01:35:00
8:55 PM,39.2,26.6,61,30.17,10.0,Calm,Calm,-,N/A,,Overcast,0,2013-11-08 01:55:00
9:15 PM,37.4,26.6,65,30.17,10.0,Calm,Calm,-,N/A,,Overcast,0,2013-11-08 02:15:00
9:35 PM,37.4,26.6,65,30.17,10.0,Calm,Calm,-,N/A,,Overcast,0,2013-11-08 02:35:00
9:55 PM,37.4,28.4,70,30.17,10.0,West,6.9,-,N/A,,Overcast,270,2013-11-08 02:55:00
10:15 PM,37.4,26.6,65,30.17,10.0,West,5.8,-,N/A,,Mostly Cloudy,260,2013-11-08 03:15:00
10:35 PM,37.4,26.6,65,30.17,10.0,WSW,5.8,-,N/A,,Mostly Cloudy,240,2013-11-08 03:35:00
10:55 PM,37.4,26.6,65,30.17,10.0,WSW,6.9,-,N/A,,Scattered Clouds,250,2013-11-08 03:55:00
11:15 PM,35.6,26.6,70,30.17,10.0,WSW,6.9,-,N/A,,Clear,250,2013-11-08 04:15:00
11:35 PM,35.6,26.6,70,30.16,10.0,WSW,8.1,-,N/A,,Partly Cloudy,240,2013-11-08 04:35:00
11:55 PM,35.6,26.6,70,30.17,10.0,Calm,Calm,-,N/A,,Scattered Clouds,0,2013-11-08 04:55:00